K9APR Weather Reports


time (UTC)temp
C
wind
direction
speed
KPH
gust
KPH
rain 1hr
cm
rain 24hr
cm
rain mn
cm
humidity
%
barometer
mb
20260901103401 22 212 0.0 0.0 0.00 0.00 0.00 88 1016.8
20260901103328 22 212 0.0 0.0 0.00 0.00 0.00 88 1016.8
20260901102517 22 212 0.0 1.6 0.00 0.00 0.00 88 1016.7
20260901102437 -17 212 0.0 1.6 0.00 0.00 0.00 88 1016.7
20260901102429 22 212 0.0 1.6 0.00 0.00 0.00 88 1016.7
20260901101600 22 156 0.0 0.0 0.00 0.00 0.00 87 1016.8
20260901101528 22 156 0.0 0.0 0.00 0.00 0.00 87 1016.8
20260901100628 22 155 0.0 0.0 0.00 0.00 0.00 88 1016.7
20260901095730 22 136 0.0 1.6 0.00 0.00 0.00 88 1016.6
20260901094831 22 135 0.0 1.6 0.00 0.00 0.00 88 1016.5
20260901093929 22 140 0.0 1.6 0.00 0.00 0.00 88 1016.5
20260901093105 22 80 0.0 0.0 0.00 0.00 0.00 88 1016.4
20260901093030 22 80 0.0 0.0 0.00 0.00 0.00 88 1016.4
20260901092130 22 58 0.0 0.0 0.00 0.00 0.00 87 1016.4
20260901091303 22 56 0.0 0.0 0.00 0.00 0.00 87 1016.4
20260901091229 22 56 0.0 0.0 0.00 0.00 0.00 87 1016.4
20260901090400 22 56 0.0 0.0 0.00 0.00 0.00 87 1016.3
20260901090329 22 56 0.0 0.0 0.00 0.00 0.00 87 1016.3
20260901085430 22 55 0.0 0.0 0.00 0.00 0.00 87 1016.3
20260901084528 22 120 0.0 0.0 0.00 0.00 0.00 86 1016.3
20260901083857 23 120 0.0 0.0 0.00 0.00 0.00 86 1016.2
20260901083708 23 120 0.0 0.0 0.00 0.00 0.00 86 1016.2
20260901083628 23 120 0.0 0.0 0.00 0.00 0.00 86 1016.2
20260901082801 23 120 0.0 0.0 0.00 0.00 0.00 86 1016.2
20260901082729 23 120 0.0 0.0 0.00 0.00 0.00 86 1016.2
20260901082011 23 118 0.0 1.6 0.00 0.00 0.00 86 1016.0
20260901081907 23 118 0.0 1.6 0.00 0.00 0.00 86 1016.0
20260901081829 23 118 0.0 1.6 0.00 0.00 0.00 86 1016.0
20260901080929 23 117 0.0 1.6 0.00 0.00 0.00 85 1016.1
20260901080029 23 117 0.0 0.0 0.00 0.00 0.00 85 1016.2
20260901075314 23 163 0.0 0.0 0.00 0.00 0.00 85 1016.1
20260901075215 23 163 0.0 0.0 0.00 0.00 0.00 85 1016.1
20260901075128 23 163 0.0 0.0 0.00 0.00 0.00 85 1016.1
20260901074228 23 167 0.0 0.0 0.00 0.00 0.00 85 1016.0
20260901073328 23 186 0.0 0.0 0.00 0.00 0.00 85 1016.1
20260901072428 23 201 0.0 0.0 0.00 0.00 0.00 85 1016.0
20260901071615 23 156 0.0 1.6 0.00 0.00 0.00 86 1015.9
20260901071529 23 156 0.0 1.6 0.00 0.00 0.00 86 1015.9
20260901070629 23 186 0.0 1.6 0.00 0.00 0.00 86 1015.9
20260901065803 23 142 0.0 1.6 0.00 0.00 0.00 86 1015.9
20260901065730 23 142 0.0 1.6 0.00 0.00 0.00 86 1015.9
20260901065039 23 229 0.0 1.6 0.00 0.00 0.00 86 1015.9
20260901065007 23 229 0.0 1.6 0.00 0.00 0.00 86 1015.9
20260901064831 23 229 0.0 1.6 0.00 0.00 0.00 86 1015.9
20260901064047 23 206 0.0 1.6 0.00 0.00 0.00 86 1016.0
20260901064008 23 206 0.0 1.6 0.00 0.00 0.00 86 1016.0
20260901063934 23 206 0.0 1.6 0.00 0.00 0.00 86 1016.0
20260901063029 23 136 0.0 0.0 0.00 0.00 0.00 86 1015.9
20260901062130 23 197 0.0 0.0 0.00 0.00 0.00 86 1015.9
20260901061231 23 224 0.0 1.6 0.00 0.00 0.00 85 1015.9
20260901055428 24 200 0.0 0.0 0.00 0.00 0.00 85 1016.0
20260901054642 24 203 0.0 1.6 0.00 0.00 0.00 84 1015.9
20260901054606 24 203 0.0 1.6 0.00 0.00 0.00 84 1015.9
20260901054529 24 203 0.0 1.6 0.00 0.00 0.00 84 1015.9
20260901053722 25 236 0.0 0.0 0.00 0.00 0.00 84 1015.9
20260901053629 25 236 0.0 0.0 0.00 0.00 0.00 84 1015.9
20260901052729 25 209 1.6 4.8 0.00 0.00 0.00 84 1015.9
20260901051005 25 144 1.6 1.6 0.00 0.00 0.00 84 1015.6
20260901050929 25 144 1.6 1.6 0.00 0.00 0.00 84 1015.6
20260901050031 25 153 0.0 0.0 0.00 0.00 0.00 84 1015.8
20260901045129 25 158 1.6 4.8 0.00 0.00 0.00 85 1015.8
20260901044300 25 145 0.0 0.0 0.00 0.00 0.00 85 1016.0
20260901044230 25 145 0.0 0.0 0.00 0.00 0.00 85 1016.0
20260901043336 24 180 0.0 8.0 0.00 0.00 0.00 86 1016.2
20260901042517 24 132 1.6 4.8 0.00 0.00 0.00 86 1016.4
20260901042428 24 132 1.6 4.8 0.00 0.00 0.00 86 1016.4
20260901041609 24 167 0.0 1.6 0.00 0.00 0.00 86 1016.9
20260901041529 24 167 0.0 1.6 0.00 0.00 0.00 86 1016.9
20260901040710 24 145 0.0 0.0 0.00 0.00 0.00 86 1016.9
20260901040629 24 145 0.0 0.0 0.00 0.00 0.00 86 1016.9
20260901035729 24 133 0.0 1.6 0.00 0.00 0.00 86 1016.8
20260901034828 24 128 0.0 0.0 0.00 0.00 0.00 85 1016.9
20260901034001 25 131 0.0 0.0 0.00 0.00 0.00 85 1016.9
20260901033928 25 131 0.0 0.0 0.00 0.00 0.00 85 1016.9
20260901033028 25 129 0.0 1.6 0.00 0.00 0.00 85 1017.0
20260901032131 25 115 0.0 0.0 0.00 0.00 0.00 85 1017.0
20260901031309 25 113 0.0 1.6 0.00 0.00 0.00 85 1017.1
20260901031228 25 113 0.0 1.6 0.00 0.00 0.00 85 1017.1
20260901030328 25 132 0.0 0.0 0.00 0.00 0.00 85 1017.0
20260901025536 25 133 0.0 0.0 0.00 0.00 0.00 84 1017.1
20260901025430 25 133 0.0 0.0 0.00 0.00 0.00 84 1017.1
20260901024528 25 132 0.0 0.0 0.00 0.00 0.00 85 1017.2
20260901024006 25 158 0.0 0.0 0.00 0.00 0.00 85 1017.1
20260901023659 25 158 0.0 0.0 0.00 0.00 0.00 85 1017.1
20260901023628 25 158 0.0 0.0 0.00 0.00 0.00 85 1017.1
20260901022803 25 158 0.0 0.0 0.00 0.00 0.00 85 1017.2
20260901022728 25 158 0.0 0.0 0.00 0.00 0.00 85 1017.2
20260901021828 25 158 0.0 0.0 0.00 0.00 0.00 85 1017.1
20260901021010 25 158 0.0 0.0 0.00 0.00 0.00 85 1017.1
20260901020928 25 158 0.0 0.0 0.00 0.00 0.00 85 1017.1
20260901020028 25 158 0.0 0.0 0.00 0.00 0.00 85 1017.1
20260901015129 25 158 0.0 0.0 0.00 0.00 0.00 85 1017.0
20260901014229 25 158 0.0 0.0 0.00 0.00 0.00 84 1017.0
20260901013329 25 158 0.0 0.0 0.00 0.00 0.00 84 1017.0
20260901012428 25 158 0.0 0.0 0.00 0.00 0.00 84 1016.8
20260901011529 25 158 0.0 0.0 0.00 0.00 0.00 83 1016.6
20260901010628 25 158 0.0 0.0 0.00 0.00 0.00 82 1016.6
20260901005728 26 158 0.0 0.0 0.00 0.00 0.00 81 1016.5
20260901004830 26 158 0.0 0.0 0.00 0.00 0.00 80 1016.4
20260901004007 26 158 0.0 0.0 0.00 0.00 0.00 79 1016.3
20260901003928 26 158 0.0 0.0 0.00 0.00 0.00 79 1016.3
20260901003101 27 159 0.0 0.0 0.00 0.00 0.00 78 1016.2
20260901003028 27 159 0.0 0.0 0.00 0.00 0.00 78 1016.2
20260901002233 27 159 0.0 0.0 0.00 0.00 0.00 77 1016.1
20260901002158 27 159 0.0 0.0 0.00 0.00 0.00 77 1016.1
20260901002127 27 159 0.0 0.0 0.00 0.00 0.00 77 1016.1
20260901001229 27 159 0.0 0.0 0.00 0.00 0.00 76 1016.0
20260901000329 27 159 0.0 0.0 0.00 0.00 0.00 75 1016.0
20260831235501 28 159 0.0 0.0 0.00 0.00 0.00 75 1015.9
20260831235429 28 159 0.0 0.0 0.00 0.00 0.00 75 1015.9
20260831234529 28 159 0.0 0.0 0.00 0.00 0.00 74 1015.9
20260831233627 28 156 0.0 0.0 0.00 0.00 0.00 73 1015.8
20260831232729 28 212 0.0 0.0 0.00 0.00 0.00 73 1015.9
20260831231828 28 124 0.0 0.0 0.00 0.00 0.00 72 1015.7
20260831230928 29 111 0.0 1.6 0.00 0.00 0.00 72 1015.7
20260831230029 29 226 0.0 1.6 0.00 0.00 0.00 70 1015.8
20260831225129 29 164 0.0 0.0 0.00 0.00 0.00 70 1015.7
20260831224229 30 140 0.0 1.6 0.00 0.00 0.00 68 1015.7
20260831223328 30 175 1.6 8.0 0.00 0.00 0.00 67 1015.6
20260831222429 30 164 1.6 4.8 0.00 0.00 0.00 65 1015.7
20260831220933 31 146 1.6 4.8 0.00 0.00 0.00 63 1015.7
20260831220628 31 146 1.6 4.8 0.00 0.00 0.00 63 1015.7
20260831215729 32 186 1.6 4.8 0.00 0.00 0.00 61 1015.9
20260831214855 32 188 3.2 9.7 0.00 0.00 0.00 59 1016.0
20260831214000 32 213 1.6 3.2 0.00 0.00 0.00 59 1016.0
20260831213928 32 213 1.6 3.2 0.00 0.00 0.00 59 1016.0
20260831213028 32 167 3.2 4.8 0.00 0.00 0.00 59 1016.1
20260831212128 32 202 1.6 4.8 0.00 0.00 0.00 59 1016.0
20260831211228 32 167 1.6 4.8 0.00 0.00 0.00 59 1016.1
20260831210328 32 188 1.6 4.8 0.00 0.00 0.00 60 1016.2
20260831205429 32 134 3.2 8.0 0.00 0.00 0.00 60 1016.2
20260831204527 32 203 0.0 1.6 0.00 0.00 0.00 61 1016.3
20260831203627 32 281 0.0 1.6 0.00 0.00 0.00 59 1016.4
20260831202728 32 147 0.0 1.6 0.00 0.00 0.00 63 1016.6
20260831201828 32 164 1.6 1.6 0.00 0.00 0.00 62 1016.9
20260831200928 32 139 0.0 3.2 0.00 0.00 0.00 61 1017.1
20260831200029 32 175 0.0 3.2 0.00 0.00 0.00 63 1017.3
20260831195129 32 265 0.0 3.2 0.00 0.00 0.00 64 1017.5
20260831194228 32 170 0.0 3.2 0.00 0.00 0.00 66 1017.7
20260831193328 32 300 1.6 4.8 0.00 0.00 0.00 65 1017.6
20260831192427 31 314 0.0 0.0 0.00 0.00 0.00 69 1017.7
20260831191528 31 309 3.2 4.8 0.00 0.00 0.00 67 1017.9
20260831190628 31 309 3.2 4.8 0.00 0.00 0.00 66 1017.9
20260831185729 31 311 1.6 3.2 0.00 0.00 0.00 66 1018.0
20260831184827 31 213 0.0 4.8 0.00 0.00 0.00 69 1018.2
20260831183928 31 310 4.8 4.8 0.00 0.00 0.00 68 1018.1
20260831183029 31 305 1.6 4.8 0.00 0.00 0.00 72 1018.1
20260831182129 30 310 3.2 8.0 0.00 0.00 0.00 70 1018.3
20260831181227 31 283 4.8 8.0 0.00 0.00 0.00 70 1018.3
20260831180328 31 311 3.2 4.8 0.00 0.00 0.00 72 1018.3
20260831175428 31 255 0.0 0.0 0.00 0.00 0.00 72 1018.3
20260831174528 30 304 0.0 0.0 0.00 0.00 0.00 74 1018.4
20260831173628 30 309 1.6 0.0 0.00 0.00 0.00 74 1018.5
20260831172729 30 312 0.0 1.6 0.00 0.00 0.00 73 1018.5
20260831171829 29 144 1.6 4.8 0.00 0.00 0.00 73 1018.7
20260831170932 29 305 3.2 8.0 0.00 0.00 0.00 74 1018.7
20260831165128 30 308 1.6 9.7 0.00 0.00 0.00 73 1018.7
20260831164228 30 158 1.6 3.2 0.00 0.00 0.00 75 1018.9
20260831163329 30 300 0.0 4.8 0.00 0.00 0.00 76 1018.9
20260831162428 29 301 0.0 0.0 0.00 0.00 0.00 76 1019.0
20260831161528 28 309 1.6 4.8 0.00 0.00 0.00 77 1019.0
20260831160629 28 166 1.6 1.6 0.00 0.00 0.00 78 1018.9
20260831155728 28 134 1.6 3.2 0.00 0.00 0.00 81 1019.0
20260831154829 27 296 0.0 1.6 0.00 0.00 0.00 82 1018.9
20260831153928 27 319 0.0 0.0 0.00 0.00 0.00 81 1019.0
20260831153027 27 193 0.0 3.2 0.00 0.00 0.00 81 1019.0
20260831152129 27 280 0.0 1.6 0.00 0.00 0.00 81 1018.9
20260831151309 27 172 0.0 0.0 0.00 0.00 0.00 82 1018.9
20260831151228 27 172 0.0 0.0 0.00 0.00 0.00 82 1018.9
20260831150328 26 259 0.0 4.8 0.00 0.00 0.00 82 1018.9
20260831145429 26 249 0.0 1.6 0.00 0.00 0.00 83 1018.8
20260831144528 26 118 0.0 0.0 0.00 0.00 0.00 82 1018.8
20260831143630 26 283 0.0 0.0 0.00 0.00 0.00 82 1018.8
20260831142729 26 153 0.0 0.0 0.00 0.00 0.00 83 1018.6
20260831141828 25 205 0.0 0.0 0.00 0.00 0.00 82 1018.6
20260831140928 25 172 0.0 1.6 0.00 0.00 0.00 83 1018.6
20260831140027 25 203 0.0 1.6 0.00 0.00 0.00 83 1018.7
20260831135207 24 171 0.0 3.2 0.00 0.00 0.00 85 1018.6
20260831135128 24 171 0.0 3.2 0.00 0.00 0.00 85 1018.6
20260831134228 23 159 0.0 3.2 0.00 0.00 0.00 86 1018.6
20260831133417 23 158 0.0 1.6 0.00 0.00 0.00 88 1018.7
20260831133328 23 158 0.0 1.6 0.00 0.00 0.00 88 1018.7
20260831132535 23 167 0.0 0.0 0.00 0.00 0.00 88 1018.7
20260831132429 23 167 0.0 0.0 0.00 0.00 0.00 88 1018.7
20260831131640 22 149 0.0 0.0 0.00 0.00 0.00 89 1018.6
20260831131607 22 149 0.0 0.0 0.00 0.00 0.00 89 1018.6
20260831131528 22 149 0.0 0.0 0.00 0.00 0.00 89 1018.6
20260831130659 22 149 0.0 0.0 0.00 0.00 0.00 89 1018.6
20260831130627 22 149 0.0 0.0 0.00 0.00 0.00 89 1018.6
20260831125804 21 149 0.0 0.0 0.00 0.00 0.00 89 1018.7
20260831125728 21 149 0.0 0.0 0.00 0.00 0.00 89 1018.7
20260831125013 21 149 0.0 0.0 0.00 0.00 0.00 89 1018.6
20260831124859 21 149 0.0 0.0 0.00 0.00 0.00 89 1018.6
20260831124827 21 149 0.0 0.0 0.00 0.00 0.00 89 1018.6
20260831124001 21 149 0.0 0.0 0.00 0.00 0.00 89 1018.6
20260831123928 21 149 0.0 0.0 0.00 0.00 0.00 89 1018.6
20260831123233 21 149 0.0 0.0 0.00 0.00 0.00 89 1018.5
20260831123115 21 149 0.0 0.0 0.00 0.00 0.00 89 1018.5
20260831123029 21 149 0.0 0.0 0.00 0.00 0.00 89 1018.5
20260831122129 21 154 0.0 0.0 0.00 0.00 0.00 89 1018.5
20260831121315 21 154 0.0 0.0 0.00 0.00 0.00 89 1018.4
20260831121229 21 154 0.0 0.0 0.00 0.00 0.00 89 1018.4
20260831120410 21 154 0.0 0.0 0.00 0.00 0.00 89 1018.3
20260831120336 21 154 0.0 0.0 0.00 0.00 0.00 89 1018.3
20260831115552 21 154 0.0 0.0 0.00 0.00 0.00 89 1018.4
20260831115502 21 154 0.0 0.0 0.00 0.00 0.00 89 1018.4
20260831115430 21 154 0.0 0.0 0.00 0.00 0.00 89 1018.4
20260831114602 21 154 0.0 0.0 0.00 0.00 0.00 90 1018.3
20260831114531 21 154 0.0 0.0 0.00 0.00 0.00 90 1018.3
20260831113659 21 154 0.0 0.0 0.00 0.00 0.00 90 1018.3
20260831113627 21 154 0.0 0.0 0.00 0.00 0.00 90 1018.3
20260831112920 20 154 0.0 0.0 0.00 0.00 0.00 90 1018.3
20260831112727 20 154 0.0 0.0 0.00 0.00 0.00 90 1018.3
20260831111908 20 154 0.0 0.0 0.00 0.00 0.00 90 1018.3
20260831111828 20 154 0.0 0.0 0.00 0.00 0.00 90 1018.3
20260831111015 20 154 0.0 0.0 0.00 0.00 0.00 89 1018.2
20260831110928 20 154 0.0 0.0 0.00 0.00 0.00 89 1018.2
20260831110238 21 154 0.0 0.0 0.00 0.00 0.00 89 1018.1
20260831110134 21 154 0.0 0.0 0.00 0.00 0.00 89 1018.1
20260831110027 21 154 0.0 0.0 0.00 0.00 0.00 89 1018.1
20260831105343 21 154 0.0 0.0 0.00 0.00 0.00 89 1018.0
20260831105310 21 154 0.0 0.0 0.00 0.00 0.00 89 1018.0
20260831105128 21 154 0.0 0.0 0.00 0.00 0.00 89 1018.0